Погода в Белогорском

Россия / Ульяновская область     53°34′59″N   48°10′34″E
темп.,
°C
ветер,
м/с
пор.,
м/с
влажн.,
%
обл.,
%
осадки,
мм/ч
давл.,
гПа
погр.,
м
22 января, пт
пт2201:00−11юз61194100 0.9 1018371
04:00−11зюз4894100 1.9 1018501
07:00−14з3394100 0.1 101872
10:00−16з229396 0.1 101827
13:00−12з238996 0.0 1019238
16:00−12зюз129394 0.0 101931
19:00−12ю1194100 0.0 102022
22:00−12юв239698 0.3 102191
23 января, сб
сб2301:00−12юв2496100 0.5 1022139
04:00−12юв3695100 1.1 1022233
07:00−11ююв4795100 0.4 1022242
10:00−10ююв4895100 0.6 1022226
13:00−6ю5895100 0.3 1021240
16:00−2ююз51095100 0.7 1020326
19:00+1юз4898100 0.2 1020253
22:00+1юз51097100 0.2 1020319
24 января, вс
вс2401:00+1юз5997100 0.0 1021338
04:00+1юз4898100 0.0 1022266
07:00+1юз4898100 0.0 1022266
10:00+1ююз4899100 0.0 1024249
13:00+1ююз510100100 0.0 1024290
16:00+1ююз51096100 0.0 1024310
19:00−2ююз5109099 0.0 1025225
22:00−2ююз5109398 0.0 1026275
25 января, пн
пн2501:00−3ююз5119496 0.0 1027285
04:00−2ююз599698 0.0 1027350
07:00−4ю489699 0.0 1028223
10:00−6ююв31096100 0.0 1028229
13:00−3ююв5898100 0.0 1027350
16:00−3ююв51097100 0.0 1027468
19:00−3ююв51096100 0.0 1027525
22:00−3ююв51095100 0.1 1026517
26 января, вт
вт2601:00−3ю51095100 0.0 1026477
04:00−3ююв3996100 0.1 1026455
07:00−4ююв399699 0.0 1026405
10:00−5ююв4109598 0.1 1026365
13:00−4ю6109799 0.0 1026447
16:00−3ююв5995100 0.1 1024459
19:00−3ююв61196100 0.0 1024472
22:00−4ююв61297100 0.1 1023533